Date String (YYYY-MM-DD hh:mm:ss) UTC,Instrument flags,Ambient pressure (hPa),Sample flow (lpm),Bypass flow (lpm),Sample temperature (°C),Ambient temperature (°C),ASC tube jacket temperature (°C),LED temperature (°C),Box temperature (°C),Sample RH (%),Span deviation,Mass concentration (μg/m³),Mass concentration (μg/m³),Mass concentration (μg/m³)
DateTimeUTC,F1_M11,P_M11,Q1_M11,Q2_M11,T1_M11,T2_M11,T3_M11,T4_M11,T5_M11,U1_M11,ZSPAN_M11,X0_M11,X2_M11,X1_M11
2021-09-25 17:00:00,,0830.1,4.99,0.00,29.9,27.0,00.0,38.9,31.2,15.2,0003.6,0018.85,0008.08,0006.97
2021-09-25 17:01:00,,0830.1,5.00,0.00,29.7,26.2,00.0,38.9,31.0,15.4,0003.8,0019.30,0008.17,0007.02
2021-09-25 17:02:00,,0830.1,5.00,0.00,29.7,26.6,00.0,38.9,31.1,15.7,0003.8,0020.02,0008.18,0007.03
2021-09-25 17:03:00,,0830.1,5.00,0.00,29.6,27.0,00.0,38.8,31.2,15.6,0003.8,0020.76,0008.17,0007.04
2021-09-25 17:04:00,,0830.0,5.01,0.00,29.6,27.4,00.0,38.8,31.3,15.7,0003.7,0022.00,0008.14,0007.05
2021-09-25 17:05:00,,0830.1,4.99,0.00,29.6,27.8,00.0,38.8,31.4,15.8,0003.9,0020.99,0008.14,0007.05
2021-09-25 17:06:00,,0830.1,5.00,0.00,29.7,28.1,00.0,38.8,31.4,16.0,0003.7,0020.91,0008.16,0007.05
2021-09-25 17:07:00,,0830.1,5.00,0.00,29.7,28.3,00.0,38.8,31.5,15.7,0003.6,0020.61,0008.21,0007.03
2021-09-25 17:08:00,,0830.1,4.99,0.00,29.8,28.5,00.0,38.8,31.6,16.2,0003.5,0020.43,0008.19,0007.03
2021-09-25 17:09:00,,0830.1,4.99,0.00,29.8,28.7,00.0,38.8,31.7,16.1,0003.2,0020.49,0008.26,0007.03
2021-09-25 17:10:00,,0830.1,5.01,0.00,29.8,28.9,00.0,38.8,31.7,15.9,0002.7,0020.88,0008.31,0007.03
2021-09-25 17:11:00,,0830.1,4.99,0.00,29.9,29.0,00.0,38.8,31.8,15.8,0002.4,0020.48,0008.35,0007.02
2021-09-25 17:12:00,,0830.1,5.00,0.00,29.9,29.1,00.0,38.9,31.8,15.8,0002.3,0019.75,0008.32,0006.99
2021-09-25 17:13:00,,0830.1,4.99,0.00,30.0,28.7,00.0,38.9,31.7,15.6,0002.8,0018.81,0008.31,0006.98
2021-09-25 17:14:00,,0830.1,5.00,0.00,29.9,26.9,00.0,38.9,31.3,14.6,0002.8,0017.85,0008.34,0006.98
2021-09-25 17:15:00,,0830.1,5.00,0.00,29.7,26.4,00.0,38.9,31.1,14.5,0002.7,0016.94,0008.33,0006.97
2021-09-25 17:16:00,,0830.1,5.00,0.00,29.7,26.7,00.0,38.8,31.2,14.8,0002.3,0017.26,0008.30,0006.95
2021-09-25 17:17:00,,0830.1,5.00,0.00,29.6,27.2,00.0,38.8,31.3,15.0,0002.4,0017.06,0008.27,0006.93
2021-09-25 17:18:00,,0830.1,5.01,0.00,29.6,27.6,00.0,38.8,31.3,15.1,0002.4,0016.95,0008.22,0006.92
2021-09-25 17:19:00,,0830.1,5.00,0.00,29.7,27.9,00.0,38.8,31.4,14.9,0002.1,0016.99,0008.25,0006.90
2021-09-25 17:20:00,,0830.1,5.01,0.00,29.7,28.2,00.0,38.7,31.5,14.9,0001.5,0017.57,0008.20,0006.88
2021-09-25 17:21:00,,0830.1,5.01,0.00,29.7,28.4,00.0,38.8,31.5,15.1,0001.7,0017.50,0008.14,0006.85
2021-09-25 17:22:00,,0830.0,4.99,0.00,29.8,28.6,00.0,38.8,31.6,15.4,0001.7,0017.39,0008.12,0006.85
2021-09-25 17:23:00,,0830.0,5.01,0.00,29.8,28.7,00.0,38.8,31.7,15.6,0001.9,0016.88,0008.10,0006.86
2021-09-25 17:24:00,,0829.9,5.00,0.00,29.9,28.9,00.0,38.8,31.7,15.6,0001.8,0016.67,0008.10,0006.86
2021-09-25 17:25:00,,0829.9,5.01,0.00,29.9,29.0,00.0,38.8,31.8,15.7,0001.5,0016.36,0008.09,0006.87
2021-09-25 17:26:00,,0829.9,4.99,0.00,29.9,28.2,00.0,38.8,31.6,15.7,0001.3,0016.39,0008.12,0006.88
2021-09-25 17:27:00,,0829.9,5.01,0.00,29.8,26.5,00.0,38.8,31.1,15.9,0001.4,0016.61,0008.09,0006.86
2021-09-25 17:28:00,,0829.9,4.99,0.00,29.6,26.2,00.0,38.8,31.0,16.0,0001.2,0017.21,0008.05,0006.85
2021-09-25 17:29:00,,0829.8,5.00,0.00,29.6,26.7,00.0,38.8,31.2,16.2,0001.3,0018.17,0008.09,0006.86
2021-09-25 17:30:00,,0829.9,5.01,0.00,29.6,27.1,00.0,38.7,31.2,16.2,0001.5,0018.78,0008.09,0006.86
2021-09-25 17:31:00,,0829.8,5.00,0.00,29.6,27.5,00.0,38.7,31.2,16.0,0001.6,0018.49,0008.03,0006.84
2021-09-25 17:32:00,,0829.9,5.00,0.00,29.6,27.8,00.0,38.7,31.3,15.9,0001.7,0018.28,0008.00,0006.82
2021-09-25 17:33:00,,0829.9,5.00,0.00,29.6,28.1,00.0,38.7,31.4,16.3,0001.6,0018.57,0007.99,0006.79
2021-09-25 17:34:00,,0829.8,4.99,0.00,29.7,28.4,00.0,38.7,31.5,16.1,0001.2,0018.87,0007.99,0006.76
2021-09-25 17:35:00,,0829.8,5.01,0.00,29.7,28.6,00.0,38.7,31.6,14.8,0001.0,0018.83,0007.89,0006.71
2021-09-25 17:36:00,,0829.8,4.99,0.00,29.8,28.7,00.0,38.7,31.6,16.4,0001.4,0019.09,0007.81,0006.66
2021-09-25 17:37:00,,0829.8,5.01,0.00,29.8,28.9,00.0,38.7,31.7,16.0,0001.5,0018.85,0007.79,0006.63
2021-09-25 17:38:00,,0829.8,5.00,0.00,29.8,28.6,00.0,38.8,31.6,15.4,0001.4,0019.05,0007.79,0006.60
2021-09-25 17:39:00,,0829.8,4.99,0.00,29.7,26.9,00.0,38.7,31.1,15.2,0001.5,0019.59,0007.78,0006.57
2021-09-25 17:40:00,,0829.8,5.00,0.00,29.6,26.2,00.0,38.7,30.9,15.3,0001.2,0019.09,0007.72,0006.52
2021-09-25 17:41:00,,0829.8,5.00,0.00,29.5,26.6,00.0,38.7,31.0,15.5,0001.0,0018.68,0007.66,0006.47
2021-09-25 17:42:00,,0829.7,5.00,0.00,29.5,27.0,00.0,38.7,31.1,15.6,0001.4,0018.17,0007.69,0006.46
2021-09-25 17:43:00,,0829.8,5.00,0.00,29.5,27.4,00.0,38.6,31.2,15.7,0001.5,0018.06,0007.71,0006.46
2021-09-25 17:44:00,,0829.7,5.00,0.00,29.5,27.8,00.0,38.6,31.3,15.0,0001.8,0018.08,0007.63,0006.43
2021-09-25 17:45:00,,0829.7,4.99,0.00,29.6,28.1,00.0,38.6,31.3,15.1,0002.0,0018.61,0007.62,0006.41
2021-09-25 17:46:00,,0829.7,5.01,0.00,29.6,28.3,00.0,38.6,31.4,15.3,0002.1,0018.65,0007.67,0006.43
2021-09-25 17:47:00,,0829.7,5.01,0.00,29.6,28.5,00.0,38.6,31.5,15.8,0001.8,0018.37,0007.73,0006.43
2021-09-25 17:48:00,,0829.6,5.00,0.00,29.7,28.7,00.0,38.7,31.6,16.1,0001.9,0018.37,0007.73,0006.42
2021-09-25 17:49:00,,0829.6,5.00,0.00,29.8,28.8,00.0,38.7,31.7,16.7,0002.5,0017.68,0007.77,0006.43
2021-09-25 17:50:00,,0829.6,5.00,0.00,29.8,28.8,00.0,38.7,31.7,16.7,0002.3,0016.80,0007.80,0006.46
2021-09-25 17:51:00,,0829.7,5.01,0.00,29.7,27.3,00.0,38.7,31.2,17.1,0002.5,0016.05,0007.80,0006.47
2021-09-25 17:52:00,,0829.8,5.00,0.00,29.6,26.1,00.0,38.7,30.9,15.5,0002.9,0016.00,0007.79,0006.47
2021-09-25 17:53:00,,0829.7,4.99,0.00,29.5,26.4,00.0,38.7,31.0,15.4,0002.7,0015.92,0007.77,0006.45
2021-09-25 17:54:00,,0829.6,5.00,0.00,29.5,26.9,00.0,38.6,31.1,15.7,0002.7,0015.83,0007.74,0006.42
2021-09-25 17:55:00,,0829.6,5.01,0.00,29.5,27.3,00.0,38.6,31.1,16.6,0002.6,0015.49,0007.75,0006.42
2021-09-25 17:56:00,,0829.6,4.99,0.00,29.5,27.7,00.0,38.6,31.2,16.3,0002.5,0015.28,0007.78,0006.44
2021-09-25 17:57:00,,0829.6,5.01,0.00,29.5,28.0,00.0,38.6,31.3,16.5,0002.5,0015.61,0007.78,0006.43
2021-09-25 17:58:00,,0829.5,4.99,0.00,29.6,28.2,00.0,38.6,31.4,16.4,0002.8,0016.49,0007.83,0006.42
2021-09-25 17:59:00,,0829.5,5.00,0.00,29.6,28.5,00.0,38.6,31.5,16.6,0002.4,0016.86,0007.83,0006.42
